TimeAST,TemperatureF,Dew PointF,Humidity,Sea Level PressureIn,VisibilityMPH,Wind Direction,Wind SpeedMPH,Gust SpeedMPH,PrecipitationIn,Events,Conditions,WindDirDegrees,DateUTC
12:00 AM,78.8,77.0,94,30.04,6.2,ESE,8.1,-,N/A,,Scattered Clouds,110,2013-07-26 04:00:00
1:00 AM,80.6,77.0,89,30.04,6.2,East,11.5,-,N/A,,Scattered Clouds,100,2013-07-26 05:00:00
2:00 AM,82,77,79,30.02,6,East,9.2,,,Rain,Light Rain Showers,90,2013-07-26 06:00:00
2:00 AM,80.6,77.0,89,30.01,6.2,East,9.2,-,N/A,Rain,Light Rain Showers,90,2013-07-26 06:00:00
3:00 AM,80.6,75.2,84,30.01,6.2,East,8.1,-,N/A,,Scattered Clouds,100,2013-07-26 07:00:00
4:00 AM,80.6,75.2,84,30.01,6.2,ESE,9.2,-,N/A,,Scattered Clouds,120,2013-07-26 08:00:00
5:00 AM,80,76,83,30.02,10,East,9.2,,,Rain,Light Rain Showers,100,2013-07-26 09:00:00
5:00 AM,80.6,75.2,84,30.01,6.2,East,9.2,-,N/A,,Scattered Clouds,100,2013-07-26 09:00:00
6:00 AM,80.6,75.2,84,30.04,6.2,ESE,9.2,-,N/A,,Scattered Clouds,110,2013-07-26 10:00:00
7:00 AM,82.4,75.2,79,30.04,6.2,ESE,11.5,-,N/A,,Scattered Clouds,110,2013-07-26 11:00:00
8:00 AM,83,77,77,30.05,9,ESE,13.8,,,,Widespread Dust,120,2013-07-26 12:00:00
8:00 AM,84.2,77.0,79,30.04,6.2,ESE,13.8,-,N/A,,Partly Cloudy,120,2013-07-26 12:00:00
9:00 AM,84.2,77.0,79,30.04,6.2,SE,11.5,-,N/A,,Scattered Clouds,130,2013-07-26 13:00:00
10:00 AM,86.0,77.0,74,30.04,6.2,ESE,9.2,-,N/A,,Scattered Clouds,120,2013-07-26 14:00:00
11:00 AM,85,77,72,30.06,9,SE,13.8,,,,Widespread Dust,130,2013-07-26 15:00:00
11:00 AM,86.0,77.0,74,30.04,6.2,SE,13.8,-,N/A,,Scattered Clouds,130,2013-07-26 15:00:00
12:00 PM,86.0,77.0,74,30.04,6.2,ESE,15.0,-,N/A,Rain,Light Rain Showers,120,2013-07-26 16:00:00
1:00 PM,86.0,77.0,74,30.01,6.2,SE,15.0,-,N/A,,Mostly Cloudy,130,2013-07-26 17:00:00
2:00 PM,86,76,67,29.99,7,SE,11.5,,,,Widespread Dust,130,2013-07-26 18:00:00
2:00 PM,86.0,77.0,74,29.98,6.2,SE,11.5,-,N/A,,Partly Cloudy,130,2013-07-26 18:00:00
3:00 PM,86.0,77.0,74,29.98,6.2,ESE,11.5,-,N/A,,Partly Cloudy,120,2013-07-26 19:00:00
4:00 PM,86.0,77.0,74,29.95,6.2,SE,10.4,-,N/A,,Partly Cloudy,130,2013-07-26 20:00:00
5:00 PM,85,77,71,29.97,9,SE,11.5,,,,Widespread Dust,140,2013-07-26 21:00:00
5:00 PM,84.2,77.0,79,29.95,6.2,SE,11.5,-,N/A,,Partly Cloudy,140,2013-07-26 21:00:00
6:00 PM,84.2,77.0,79,29.98,6.2,SE,11.5,-,N/A,,Partly Cloudy,130,2013-07-26 22:00:00
7:00 PM,82.4,75.2,79,29.98,6.2,ESE,9.2,-,N/A,,Partly Cloudy,120,2013-07-26 23:00:00
8:00 PM,82,74,70,30.01,9,ESE,9.2,,,,Widespread Dust,110,2013-07-27 00:00:00
8:00 PM,82.4,73.4,74,30.01,6.2,ESE,9.2,-,N/A,,Partly Cloudy,110,2013-07-27 00:00:00
9:00 PM,80.6,75.2,84,30.01,6.2,East,8.1,-,N/A,,Partly Cloudy,100,2013-07-27 01:00:00
10:00 PM,80.6,75.2,84,30.04,6.2,East,6.9,-,N/A,,Partly Cloudy,100,2013-07-27 02:00:00
11:00 PM,81,75,78,30.05,9,ESE,8.1,,,,Widespread Dust,110,2013-07-27 03:00:00
11:00 PM,80.6,75.2,84,30.04,6.2,ESE,8.1,-,N/A,,Scattered Clouds,110,2013-07-27 03:00:00